RRR4238 SKCG-KMSY

Flight info

Callsign RRR4238
Flight time N/A
Altitude 32000
Route VARO2A VARON DCT OPLOS DCT ARNAL DCT CISNE A321 ILUBA L333 HRV
Aircraft A400/H-SGHIRWXY/LB1

Departure

Time N/A
Airport Rafael Nuñez International Airport (SKCG)

Arrival

Time 2026-05-05 19:36
Airport Louis Armstrong New Orleans International Airport (KMSY)
Time Latitude Longitude Altitude Speed Heading
2026-05-05 19:15 28.93842 -89.44454 32002 ft 364 kts 300°
2026-05-05 19:15 28.95099 -89.46812 32001 ft 364 kts 300°
2026-05-05 19:15 28.97768 -89.51823 32001 ft 362 kts 300°
2026-05-05 19:16 29.00384 -89.56739 32001 ft 361 kts 300°
2026-05-05 19:16 29.02978 -89.61621 32001 ft 361 kts 299°
2026-05-05 19:17 29.05585 -89.66534 31997 ft 361 kts 299°
2026-05-05 19:17 29.08188 -89.71445 31995 ft 361 kts 299°
2026-05-05 19:18 29.10351 -89.75530 31994 ft 360 kts 299°
2026-05-05 19:18 29.12943 -89.80431 31995 ft 360 kts 299°
2026-05-05 19:19 29.15536 -89.85340 31996 ft 361 kts 299°
2026-05-05 19:19 29.16830 -89.87791 31769 ft 353 kts 299°
2026-05-05 19:19 29.18087 -89.90172 31023 ft 354 kts 299°
2026-05-05 19:20 29.19370 -89.92608 30147 ft 359 kts 299°
2026-05-05 19:20 29.20670 -89.95076 29157 ft 364 kts 299°
2026-05-05 19:20 29.21980 -89.97566 28226 ft 365 kts 300°
2026-05-05 19:20 29.23299 -90.00071 27317 ft 366 kts 300°
2026-05-05 19:21 29.24585 -90.02516 26455 ft 366 kts 300°
2026-05-05 19:21 29.25894 -90.05006 25743 ft 363 kts 300°
2026-05-05 19:21 29.27184 -90.07462 25065 ft 358 kts 300°
2026-05-05 19:21 29.28462 -90.09895 24391 ft 353 kts 301°
2026-05-05 19:22 29.29719 -90.12292 23740 ft 349 kts 301°
2026-05-05 19:22 29.30965 -90.14668 23007 ft 345 kts 301°
2026-05-05 19:22 29.32200 -90.17025 22196 ft 342 kts 301°
2026-05-05 19:22 29.33420 -90.19354 21424 ft 339 kts 300°
2026-05-05 19:23 29.34614 -90.21635 20695 ft 337 kts 301°
2026-05-05 19:23 29.36056 -90.23735 19962 ft 337 kts 315°
2026-05-05 19:23 29.38029 -90.25215 19254 ft 341 kts 327°
2026-05-05 19:23 29.40149 -90.26437 18567 ft 339 kts 328°
2026-05-05 19:24 29.42261 -90.27624 17822 ft 337 kts 329°
2026-05-05 19:24 29.44357 -90.28807 17073 ft 335 kts 329°
2026-05-05 19:24 29.46445 -90.30001 16327 ft 333 kts 329°
2026-05-05 19:24 29.48481 -90.31185 15625 ft 331 kts 329°
2026-05-05 19:25 29.50525 -90.32388 14942 ft 329 kts 329°
2026-05-05 19:25 29.52548 -90.33597 14267 ft 327 kts 329°
2026-05-05 19:25 29.54552 -90.34811 13558 ft 325 kts 329°
2026-05-05 19:25 29.56558 -90.36027 12762 ft 326 kts 329°
2026-05-05 19:26 29.58563 -90.37249 11960 ft 327 kts 329°
2026-05-05 19:26 29.60580 -90.38481 11191 ft 328 kts 329°
2026-05-05 19:26 29.62592 -90.39716 10433 ft 329 kts 329°
2026-05-05 19:26 29.64611 -90.40955 9937 ft 324 kts 329°
2026-05-05 19:27 29.66555 -90.42142 9691 ft 309 kts 328°
2026-05-05 19:27 29.68424 -90.43267 9471 ft 297 kts 329°
2026-05-05 19:27 29.70232 -90.44352 9110 ft 291 kts 329°
2026-05-05 19:27 29.72014 -90.45415 8681 ft 288 kts 328°
2026-05-05 19:28 29.73772 -90.46458 8201 ft 288 kts 329°
2026-05-05 19:28 29.75559 -90.47520 7727 ft 287 kts 329°
2026-05-05 19:28 29.77334 -90.48584 7282 ft 286 kts 329°
2026-05-05 19:28 29.79104 -90.49642 6821 ft 286 kts 328°
2026-05-05 19:29 29.80872 -90.50695 6380 ft 285 kts 328°
2026-05-05 19:29 29.82620 -90.51751 6059 ft 283 kts 328°
2026-05-05 19:29 29.84345 -90.52794 5977 ft 282 kts 329°
2026-05-05 19:29 29.86085 -90.53842 5976 ft 282 kts 328°
2026-05-05 19:30 29.87830 -90.54892 5974 ft 283 kts 329°
2026-05-05 19:30 29.89647 -90.55752 5938 ft 282 kts 346°
2026-05-05 19:30 29.91520 -90.55731 5552 ft 261 kts
2026-05-05 19:30 29.93245 -90.55149 4782 ft 256 kts 18°
2026-05-05 19:31 29.94921 -90.54451 4238 ft 259 kts 18°
2026-05-05 19:31 29.96629 -90.53729 4010 ft 260 kts 18°
2026-05-05 19:31 29.98294 -90.53022 3975 ft 257 kts 19°
2026-05-05 19:31 29.99966 -90.52320 3920 ft 252 kts 19°
2026-05-05 19:32 30.01618 -90.51625 3589 ft 255 kts 20°
2026-05-05 19:32 30.03079 -90.50495 3336 ft 253 kts 51°
2026-05-05 19:32 30.03913 -90.48734 3035 ft 249 kts 79°
2026-05-05 19:32 30.04144 -90.46797 2803 ft 241 kts 95°
2026-05-05 19:33 30.03850 -90.44939 2599 ft 228 kts 111°
2026-05-05 19:33 30.03378 -90.43267 2446 ft 210 kts 114°
2026-05-05 19:33 30.02936 -90.41738 2236 ft 199 kts 114°
2026-05-05 19:33 30.02559 -90.40213 1995 ft 194 kts 111°
2026-05-05 19:34 30.02214 -90.38750 1752 ft 183 kts 111°
2026-05-05 19:34 30.01878 -90.37367 1524 ft 174 kts 112°
2026-05-05 19:34 30.01563 -90.36061 1347 ft 167 kts 111°
2026-05-05 19:35 30.00952 -90.33528 932 ft 162 kts 111°
2026-05-05 19:35 30.00640 -90.32284 754 ft 161 kts 111°
2026-05-05 19:35 30.00347 -90.31033 567 ft 161 kts 108°
2026-05-05 19:35 30.00055 -90.29803 327 ft 156 kts 110°
2026-05-05 19:36 29.99773 -90.28610 149 ft 152 kts 110°
2026-05-05 19:36 29.99493 -90.27456 12 ft 140 kts 109°
2026-05-05 19:36 29.99310 -90.26701 20 ft 55 kts 106°
2026-05-05 19:36 29.99270 -90.26539 19 ft 3 kts 104°
2026-05-05 19:37 29.99280 -90.26485 18 ft 14 kts 52°
2026-05-05 19:37 29.99412 -90.26437 17 ft 22 kts 18°
2026-05-05 19:37 29.99546 -90.26374 19 ft 20 kts 14°
2026-05-05 19:37 29.99670 -90.26331 19 ft 19 kts 19°
2026-05-05 19:38 29.99753 -90.26304 20 ft 2 kts 13°
2026-05-05 19:38 29.99758 -90.26308 20 ft 0 kts 316°
2026-05-05 19:38 29.99751 -90.26315 20 ft 0 kts 190°
2026-05-05 19:38 29.99746 -90.26317 20 ft 0 kts 197°
2026-05-05 19:39 29.99751 -90.26315 21 ft 0 kts 196°